Riverside, CA

7:05 PM PDT on June 24, 2017 (GMT -0700)
Riverside Municipal

Weather History for KRAL - August, 2015

Change the Weather History Date:

Wednesday, August 26, 2015

  Actual Average Record
Temperature  
Mean Temperature 87 °F 79 °F  
Max Temperature 101 °F 94 °F 112 °F (1944)
Min Temperature 73 °F 64 °F 49 °F (1946)
Degree Days  
Heating Degree Days 0 0  
Month to date heating degree days 0 0  
Since 1 June heating degree days 0 2  
Since 1 July heating degree days 0 0  
Cooling Degree Days 22 14  
Month to date cooling degree days 418 379  
Year to date cooling degree days 1503 1191  
Since 1 June cooling degree days 1194 1014  
Growing Degree Days 36 (Base 50)    
Moisture  
Dew Point 59 °F    
Average Humidity 44    
Maximum Humidity 68    
Minimum Humidity 19    
Precipitation  
Precipitation 0.00 in 0.00 in 1.01 in (1915)
Month to date precipitation 0.01 0.08  
Year to date precipitation 4.47 9.34  
Sea Level Pressure  
Sea Level Pressure 29.91 in    
Wind  
Wind Speed 4 mph (West)    
Max Wind Speed 18 mph    
Max Gust Speed 23 mph    
Visibility 10 miles    
Events      
T = Trace of Precipitation, MM = Missing Value Source: NWS Daily Summary

Daily Weather History Graph

Daily Weather History Graph

Search for Another Location

Airport or City:

Trip Planner

Search our weather history database for the weather conditions in past years. The results will help you decide how hot, cold, wet, or windy it might be!

Date:

Astronomy

Aug. 26, 2015 Rise Set
Actual Time 6:19 AM PDT 7:23 PM PDT
Civil Twilight 5:53 AM PDT 7:49 PM PDT
Nautical Twilight 5:22 AM PDT 8:19 PM PDT
Astronomical Twilight 4:50 AM PDT 8:51 PM PDT
Moon 5:02 PM PDT (8/26) 2:53 AM PDT (8/26)
Length of Visible Light 13h 55m
Length of Day
13h 04m
Waxing Gibbous, 88% of the Moon is Illuminated
Aug 26
Waxing Gibbous
Aug 29
Full
Sep 5
Last Quarter
Sep 12
New
Sep 21
First Quarter

Hourly Weather History & Observations

Time (PDT) Temp. Heat Index Dew Point Humidity Pressure Visibility Wind Dir Wind Speed Gust Speed Precip Events Conditions
12:53 AM 79.0 °F - 63.0 °F 58% 29.88 in 10.0 mi Calm Calm - N/A   Clear
1:53 AM 78.1 °F - 64.0 °F 62% 29.88 in 10.0 mi Calm Calm - N/A   Clear
2:53 AM 77.0 °F - 63.0 °F 62% 29.88 in 10.0 mi Calm Calm - N/A   Clear
3:53 AM 75.9 °F - 63.0 °F 64% 29.89 in 10.0 mi Calm Calm - N/A   Clear
4:53 AM 75.0 °F - 63.0 °F 66% 29.90 in 10.0 mi Calm Calm - N/A   Clear
5:53 AM 73.9 °F - 63.0 °F 68% 29.91 in 10.0 mi Calm Calm - N/A   Clear
6:53 AM 73.9 °F - 62.1 °F 66% 29.93 in 10.0 mi Calm Calm - N/A   Clear
7:53 AM 77.0 °F - 63.0 °F 62% 29.95 in 10.0 mi Calm Calm - N/A   Mostly Cloudy
8:53 AM 78.1 °F - 64.0 °F 62% 29.96 in 10.0 mi WSW 3.5 mph - N/A   Mostly Cloudy
9:53 AM 82.0 °F 83.1 °F 63.0 °F 52% 29.96 in 10.0 mi South 4.6 mph - N/A   Scattered Clouds
10:53 AM 89.1 °F 89.3 °F 62.1 °F 40% 29.95 in 10.0 mi Calm Calm - N/A   Partly Cloudy
11:53 AM 93.0 °F 92.3 °F 59.0 °F 32% 29.94 in 10.0 mi West 4.6 mph - N/A   Scattered Clouds
12:53 PM 97.0 °F 95.7 °F 57.0 °F 26% 29.91 in 10.0 mi Variable 4.6 mph - N/A   Scattered Clouds
1:53 PM 99.0 °F 97.7 °F 55.9 °F 24% 29.90 in 10.0 mi Variable 5.8 mph - N/A   Partly Cloudy
2:53 PM 100.0 °F - 52.0 °F 20% 29.87 in 10.0 mi West 8.1 mph - N/A   Clear
3:53 PM 100.0 °F - 51.1 °F 19% 29.86 in 10.0 mi West 15.0 mph 19.6 mph N/A   Clear
4:53 PM 97.0 °F 94.6 °F 53.1 °F 23% 29.84 in 10.0 mi West 16.1 mph 23.0 mph N/A   Clear
5:53 PM 93.9 °F - 50.0 °F 22% 29.85 in 10.0 mi West 12.7 mph 20.7 mph N/A   Clear
6:53 PM 91.9 °F - 46.9 °F 21% 29.87 in 10.0 mi West 10.4 mph - N/A   Clear
7:53 PM 87.1 °F 85.3 °F 55.0 °F 33% 29.88 in 10.0 mi West 12.7 mph - N/A   Clear
8:53 PM 84.0 °F 83.8 °F 59.0 °F 43% 29.91 in 10.0 mi Variable 3.5 mph - N/A   Clear
9:53 PM 82.0 °F 82.4 °F 60.1 °F 47% 29.93 in 10.0 mi Calm Calm - N/A   Clear
10:53 PM 81.0 °F 81.3 °F 59.0 °F 47% 29.94 in 10.0 mi Calm Calm - N/A   Clear
11:53 PM 79.0 °F - 57.9 °F 48% 29.94 in 10.0 mi West 3.5 mph - N/A   Clear